Wind_Speed
10 10 11 11 10 9 9 9 9 8 8 8 8 8 7 6 6 7 6 6 6 6 5 6 6 7 7 7 7 8 8 8 8 9 9 9 10 10 9 10 10 10 11
10 10 10 10 10 9 8 8 9 8 8 8 8 7 7 7 7 7 7 6 6 7 6 7 7 8 8 8 8 9 10 9 9 9 10 10 11 11 11 11 11 12 12
10 10 9 9 9 9 8 8 9 9 9 9 8 8 7 8 8 8 7 7 7 8 8 9 8 8 9 9 10 10 10 11 11 11 11 12 12 13 13 13 13 14 14
9 10 9 9 9 8 9 9 10 10 10 10 9 8 8 9 8 8 8 8 8 8 9 9 9 9 10 11 11 12 12 12 13 13 13 13 14 14 14 15 15 15 16
8 9 9 9 9 9 10 10 11 11 11 10 8 8 9 8 8 8 8 8 9 9 9 9 9 10 11 11 12 12 12 12 12 13 14 14 15 16 16 17 17 17 18
9 9 8 8 8 9 10 11 11 11 11 9 8 9 9 9 9 9 9 9 10 10 10 10 9 10 10 11 10 11 11 12 13 14 14 15 16 17 17 18 18 19 20
9 8 8 9 8 9 10 11 11 11 10 9 8 8 9 9 9 9 9 10 10 10 11 11 11 11 10 10 10 11 12 12 13 14 15 15 16 17 18 19 19 20 21
8 8 9 10 9 10 10 10 10 11 10 10 10 9 9 9 10 10 10 11 11 11 12 12 11 11 11 11 11 11 12 13 13 14 15 15 17 18 18 19 20 20 21
8 8 9 10 11 12 10 10 10 10 10 10 10 10 10 10 10 10 10 11 11 12 12 12 12 11 11 12 11 12 12 13 14 15 16 16 17 18 19 19 19 20 20
8 8 9 11 12 12 11 9 10 10 10 10 10 10 10 11 11 11 11 11 12 12 12 12 13 12 12 12 12 12 12 13 14 14 15 16 17 18 19 19 19 19 20
9 9 10 11 11 11 10 9 9 9 10 10 10 10 11 11 11 11 11 12 12 12 13 14 14 14 13 12 12 12 12 12 13 13 14 15 17 17 18 19 19 19 20
10 10 10 11 12 12 9 9 9 9 10 10 10 10 11 11 11 11 12 12 13 13 13 14 13 13 13 12 11 12 12 12 13 14 14 14 15 16 17 18 18 19 19
11 11 11 12 12 12 10 9 9 9 10 10 11 11 11 11 12 13 13 13 13 13 13 13 13 13 13 13 12 12 12 13 13 14 15 15 16 17 17 18 18 18 19
12 12 12 12 13 12 12 11 10 10 11 11 12 12 12 13 14 14 14 14 14 14 14 14 14 14 13 13 13 13 13 14 14 15 15 16 16 17 17 17 18 19 20
14 14 14 13 13 13 12 12 12 12 12 13 13 14 14 14 15 15 15 15 15 14 14 14 14 14 13 13 13 13 14 15 15 15 15 16 16 17 17 18 19 20 20
15 14 14 13 13 13 12 12 12 13 13 13 14 14 14 15 15 15 16 16 16 15 14 14 14 14 14 13 14 14 14 15 15 15 16 16 17 18 18 19 20 20 21
15 15 14 13 13 13 13 13 13 14 14 14 15 15 15 15 15 16 16 16 16 16 16 15 15 15 15 14 14 14 15 15 16 17 17 17 18 19 19 19 20 21 22
16 16 15 14 14 13 13 14 14 15 15 16 17 16 16 16 16 16 16 16 16 16 16 16 15 15 15 15 15 15 16 16 16 17 18 19 19 19 19 20 21 21 22
18 17 17 16 15 14 14 15 16 16 17 18 18 17 17 17 17 17 17 17 17 16 16 15 16 16 16 16 16 16 16 17 18 18 19 20 20 20 20 21 22 23 24
20 19 18 18 16 16 16 16 17 18 19 19 19 19 19 18 18 18 18 18 17 17 16 15 15 16 16 17 17 17 18 18 18 19 20 21 21 22 22 23 24 25 26
22 21 20 20 19 18 17 17 19 20 20 20 20 20 19 19 18 18 18 18 18 17 16 16 16 17 18 18 18 19 19 20 21 21 22 23 23 24 24 25 26 27 28
23 22 21 19 18 18 18 19 20 21 21 21 21 20 19 20 20 19 19 18 18 17 17 17 18 18 19 19 20 21 21 22 22 23 23 24 24 25 26 27 28 28 29
23 22 22 21 20 20 19 20 21 21 22 22 21 21 21 21 21 20 20 19 19 18 19 19 20 20 20 20 21 21 22 23 24 24 24 25 26 27 28 28 28 29 30
25 24 23 23 23 22 21 21 22 22 22 22 22 22 22 22 22 21 21 20 20 20 20 21 21 21 21 21 22 23 24 24 25 26 26 27 27 28 28 29 29 29 30
27 26 25 24 24 23 22 22 22 22 23 23 23 23 23 23 22 21 22 22 22 22 22 22 23 23 23 23 24 25 26 26 27 27 28 28 28 29 29 30 30 30 30
28 27 25 24 24 23 23 23 23 23 24 24 24 24 24 24 23 23 23 23 23 23 23 24 24 24 24 25 26 26 27 27 27 28 28 28 29 29 29 30 30 30 31
Wind_Direction
18 19 21 17 18 17 14 13 6 2 4 359 357 359 359 356 352 347 340 335 330 324 310 306 298 289 276 272 275 264 261 263 261 257 256 258 259 261 266 267 268 270 274
7 7 10 15 14 11 7 6 2 355 355 350 349 349 346 340 336 331 333 328 321 317 307 302 293 288 280 274 272 265 261 262 262 261 260 261 263 263 266 269 271 271 273
359 2 1 2 4 0 3 0 353 353 349 346 345 341 339 336 329 326 332 332 323 317 308 298 291 289 287 279 271 263 260 261 261 263 264 263 265 266 269 269 270 271 272
348 350 350 353 357 359 2 359 353 350 349 349 345 341 338 337 333 328 329 329 326 324 316 304 295 294 293 287 277 269 262 262 263 264 265 265 266 267 269 272 271 271 273
341 340 343 346 354 353 353 355 350 345 347 350 347 342 338 335 334 331 329 329 327 328 326 317 302 299 297 289 279 273 266 262 263 264 266 267 267 268 272 272 273 275 276
337 332 333 338 342 345 347 348 346 346 347 348 346 344 342 337 334 330 328 329 330 329 328 323 315 306 300 297 286 276 268 264 265 268 271 269 268 268 271 271 272 275 279
329 325 328 332 339 340 342 344 345 346 342 339 333 332 335 332 330 328 326 325 323 323 324 322 317 310 304 299 291 282 273 269 271 271 272 271 270 269 270 272 274 275 277
325 329 335 335 334 335 334 338 341 343 339 331 327 324 326 326 326 324 323 321 317 317 320 320 316 310 305 301 294 285 277 278 277 273 273 273 271 271 273 274 275 276 276
320 328 332 332 331 329 328 330 336 339 337 332 327 330 329 328 325 321 320 320 318 316 316 317 317 314 310 306 299 289 283 282 284 281 276 275 276 275 275 276 277 277 277
320 327 329 328 326 323 322 323 330 335 336 334 331 330 334 336 334 330 324 321 319 318 318 317 315 313 310 308 307 298 292 288 288 287 282 280 281 279 279 277 277 279 279
321 321 327 331 328 323 318 318 324 331 332 331 330 331 334 335 334 332 329 324 322 320 318 317 314 314 313 309 307 303 299 295 292 290 289 287 286 285 284 279 278 281 282
316 319 323 326 324 322 316 316 319 324 327 327 329 332 332 333 331 329 328 325 322 321 320 316 314 313 313 313 311 308 303 300 297 293 292 292 293 291 288 283 283 285 287
307 311 314 317 317 318 316 315 317 319 324 325 326 329 327 325 324 324 324 324 322 320 321 320 317 316 315 314 310 309 304 302 301 296 294 294 294 292 290 288 288 289 289
295 301 305 310 316 320 323 321 320 318 319 320 321 322 321 321 321 319 320 321 321 320 319 320 319 317 315 313 309 307 306 305 304 300 297 296 295 294 293 291 289 290 291
285 290 298 308 313 317 322 322 322 319 318 316 316 316 316 318 319 318 318 319 319 320 317 317 318 317 315 313 310 308 308 309 309 304 301 300 299 297 295 294 293 293 294
281 287 293 305 309 311 316 319 318 319 318 316 314 313 312 315 317 316 317 319 319 317 317 316 316 316 314 312 310 308 308 310 309 305 303 302 301 298 296 296 295 295 296
277 284 292 300 303 305 309 312 314 317 317 316 315 313 312 313 314 314 316 316 317 317 316 313 312 311 310 309 308 307 308 308 309 307 305 304 301 299 297 296 297 298 297
275 280 286 293 297 298 301 306 310 315 316 317 316 313 311 311 311 312 314 314 315 315 316 312 308 307 308 308 308 307 307 307 309 309 307 304 302 301 300 297 297 299 299
273 277 282 288 293 296 298 301 305 310 312 313 313 312 310 307 305 307 310 311 313 314 314 313 308 305 307 307 307 308 309 311 311 309 307 306 305 304 303 302 302 302 303
273 278 280 284 289 294 296 298 301 305 308 309 309 311 313 309 304 301 306 309 310 312 310 310 309 306 306 305 307 309 309 310 310 309 308 307 306 305 305 304 304 305 305
271 275 278 281 285 291 294 295 300 303 305 306 308 310 311 309 304 303 305 307 308 310 310 308 308 306 304 304 305 306 306 308 308 307 307 306 306 306 306 306 306 306 306
269 272 278 281 284 288 290 292 297 301 302 303 305 306 307 308 304 302 303 302 304 306 307 305 304 304 302 301 302 304 305 307 307 307 307 306 305 305 306 307 307 306 307
266 270 275 279 282 285 286 289 294 297 299 300 301 302 303 305 305 302 300 299 299 301 302 303 303 303 301 300 302 305 307 308 308 307 306 305 305 306 307 308 308 307 308
265 268 272 277 280 281 282 287 291 295 297 298 298 299 302 302 300 299 298 296 296 297 298 299 300 300 300 299 301 304 305 305 306 306 306 306 305 306 307 308 308 308 309
263 266 270 276 279 280 281 284 289 292 294 295 296 297 299 297 294 295 296 295 294 295 295 296 298 298 298 299 300 302 303 304 305 305 306 306 306 305 306 308 309 309 310
262 265 270 274 275 277 281 284 287 290 292 293 294 295 294 294 294 294 294 293 293 294 295 295 296 297 298 299 299 301 302 303 304 305 306 306 306 307 308 309 311 311 311
Height
5919 5917 5915 5914 5912 5911 5910 5909 5908 5906 5905 5903 5902 5901 5900 5899 5898 5897 5896 5895 5894 5893 5892 5892 5891 5891 5891 5891 5891 5891 5892 5892 5893 5893 5894 5894 5894 5895 5895 5895 5895 5895 5895
5919 5917 5916 5914 5913 5911 5910 5908 5907 5906 5904 5903 5902 5901 5900 5898 5897 5896 5895 5894 5893 5892 5891 5890 5890 5889 5889 5889 5889 5889 5890 5891 5891 5891 5892 5892 5893 5892 5893 5892 5892 5892 5892
5919 5917 5916 5915 5913 5911 5909 5908 5907 5906 5904 5902 5901 5900 5899 5897 5896 5895 5894 5893 5892 5891 5890 5889 5888 5887 5887 5887 5887 5887 5887 5888 5888 5888 5889 5890 5890 5890 5890 5890 5889 5889 5889
5919 5917 5916 5914 5912 5911 5909 5908 5907 5905 5903 5902 5900 5899 5898 5897 5895 5894 5893 5892 5890 5889 5888 5887 5886 5885 5885 5884 5884 5884 5884 5885 5885 5885 5886 5886 5887 5887 5887 5886 5886 5886 5885
5918 5917 5915 5914 5912 5911 5909 5908 5906 5904 5902 5901 5900 5898 5897 5896 5895 5893 5892 5891 5889 5888 5886 5885 5884 5883 5883 5882 5881 5881 5882 5882 5882 5882 5882 5882 5883 5883 5883 5883 5882 5882 5881
5917 5916 5915 5913 5912 5910 5909 5907 5905 5903 5902 5900 5899 5898 5897 5895 5894 5892 5891 5890 5888 5887 5885 5884 5882 5881 5880 5879 5878 5878 5879 5879 5879 5879 5879 5879 5879 5879 5879 5878 5878 5877 5877
5916 5915 5913 5911 5910 5910 5909 5907 5905 5903 5901 5899 5898 5897 5896 5894 5893 5891 5890 5889 5887 5886 5884 5883 5881 5879 5878 5877 5876 5876 5876 5876 5875 5875 5875 5875 5875 5875 5874 5874 5874 5873 5873
5915 5914 5913 5911 5910 5909 5908 5906 5904 5902 5900 5898 5897 5895 5894 5893 5892 5890 5889 5887 5886 5884 5883 5881 5879 5877 5876 5875 5874 5873 5872 5872 5872 5872 5871 5871 5871 5870 5870 5870 5869 5868 5868
5914 5913 5912 5910 5909 5908 5906 5905 5903 5901 5899 5897 5896 5894 5893 5892 5890 5889 5887 5885 5884 5882 5881 5879 5877 5876 5874 5873 5871 5870 5869 5869 5868 5868 5867 5867 5866 5866 5865 5864 5864 5864 5863
5913 5912 5911 5909 5907 5906 5904 5903 5902 5900 5899 5897 5895 5894 5892 5890 5889 5887 5885 5884 5882 5881 5879 5877 5875 5873 5872 5870 5869 5868 5867 5866 5865 5864 5863 5863 5862 5861 5860 5859 5859 5859 5859
5911 5910 5909 5907 5906 5904 5903 5901 5900 5899 5898 5896 5894 5892 5891 5889 5887 5886 5884 5882 5880 5879 5877 5875 5873 5871 5869 5868 5867 5865 5864 5863 5862 5861 5860 5859 5858 5857 5856 5855 5854 5853 5853
5909 5908 5907 5906 5904 5903 5901 5900 5898 5897 5896 5894 5893 5891 5889 5888 5886 5884 5882 5881 5879 5877 5875 5873 5871 5869 5867 5866 5864 5863 5862 5860 5859 5858 5857 5855 5854 5853 5852 5851 5850 5849 5848
5907 5906 5905 5904 5903 5901 5899 5898 5897 5895 5894 5892 5891 5890 5888 5886 5885 5883 5881 5879 5876 5874 5872 5870 5868 5866 5864 5863 5862 5860 5859 5858 5856 5855 5854 5852 5851 5849 5848 5847 5846 5844 5843
5904 5904 5903 5902 5901 5899 5898 5897 5895 5893 5892 5891 5889 5888 5886 5884 5883 5881 5879 5876 5874 5872 5870 5868 5865 5863 5862 5861 5859 5858 5856 5855 5853 5852 5850 5849 5847 5845 5844 5842 5841 5840 5839
5901 5901 5901 5900 5899 5897 5896 5894 5893 5891 5890 5889 5887 5885 5884 5882 5880 5878 5876 5874 5872 5869 5867 5865 5863 5861 5859 5858 5857 5855 5854 5852 5850 5848 5847 5845 5843 5841 5840 5839 5837 5835 5834
5898 5898 5898 5897 5896 5895 5893 5892 5891 5889 5888 5886 5885 5883 5881 5879 5877 5875 5873 5871 5869 5867 5864 5862 5861 5859 5857 5855 5854 5853 5851 5849 5847 5845 5843 5842 5840 5838 5836 5834 5833 5831 5829
5894 5895 5894 5894 5893 5892 5891 5890 5888 5887 5885 5884 5881 5879 5878 5876 5874 5872 5870 5868 5866 5864 5862 5860 5858 5856 5854 5853 5851 5850 5848 5846 5844 5842 5840 5838 5836 5834 5832 5830 5828 5827 5824
5891 5891 5891 5891 5890 5889 5888 5887 5885 5884 5883 5881 5879 5877 5875 5873 5871 5869 5867 5865 5863 5861 5859 5856 5854 5853 5851 5850 5848 5846 5845 5843 5841 5839 5837 5834 5832 5830 5828 5826 5824 5822 5819
5887 5887 5887 5887 5886 5885 5884 5883 5882 5881 5880 5878 5876 5873 5871 5869 5868 5866 5864 5862 5860 5857 5855 5853 5851 5850 5848 5846 5845 5843 5841 5839 5837 5835 5833 5830 5828 5826 5823 5821 5819 5816 5814
5882 5883 5882 5882 5882 5881 5880 5879 5878 5877 5876 5874 5872 5870 5867 5865 5864 5862 5860 5858 5856 5854 5852 5850 5848 5846 5845 5843 5841 5840 5838 5836 5833 5831 5829 5826 5824 5821 5819 5816 5813 5810 5807
5877 5878 5878 5877 5878 5877 5876 5875 5874 5873 5872 5870 5868 5866 5864 5861 5859 5858 5856 5854 5853 5851 5848 5846 5845 5843 5841 5839 5838 5836 5834 5832 5829 5827 5824 5821 5819 5816 5813 5810 5807 5804 5801
5872 5872 5872 5871 5872 5872 5871 5871 5870 5868 5867 5865 5863 5862 5860 5858 5856 5854 5852 5850 5849 5847 5845 5843 5841 5839 5837 5835 5833 5831 5829 5827 5824 5822 5819 5816 5813 5810 5807 5804 5801 5798 5794
5866 5867 5867 5867 5867 5866 5866 5866 5865 5863 5862 5860 5859 5857 5855 5854 5852 5850 5848 5847 5845 5843 5841 5839 5837 5835 5833 5831 5829 5827 5824 5822 5819 5816 5813 5810 5807 5804 5801 5798 5794 5791 5788
5860 5861 5862 5862 5861 5861 5860 5860 5859 5858 5857 5855 5854 5852 5850 5848 5847 5845 5843 5842 5840 5838 5837 5835 5833 5831 5828 5826 5824 5821 5819 5816 5813 5811 5808 5804 5801 5798 5794 5791 5787 5784 5780
5854 5855 5856 5856 5856 5855 5855 5854 5853 5852 5851 5850 5848 5847 5845 5843 5841 5840 5838 5836 5835 5833 5832 5830 5828 5825 5823 5821 5819 5816 5813 5810 5808 5804 5801 5798 5795 5791 5788 5784 5780 5777 5773
5847 5848 5849 5849 5849 5849 5849 5848 5847 5846 5845 5844 5842 5841 5839 5837 5836 5834 5832 5831 5829 5828 5826 5824 5822 5820 5818 5815 5812 5810 5807 5804 5801 5798 5794 5791 5788 5784 5781 5777 5773 5769 5766